Location: ????????
(55.4000°N, 39.1167°E)
Time: 06:31:56
(UTC+00:00)

Ariane Rocket - Pass Details

Date: 19 May 2025
Orbit: 755 x 764 km, 98.5° (Epoch: 15 June)

Event Time Altitude Azimuth Distance (km) Brightness Sun altitude
Exits shadow 19:36:55 - 197° (SSW) 2,561 5.3 -11.5°
Reaches altitude 10° 19:37:40 10° 201° (SSW) 2,293 5.1 -11.6°
Maximum altitude 19:42:13 33° 265° (W) 1,265 4.3 -11.8°
Drops below altitude 10° 19:46:49 10° 330° (NNW) 2,313 7.0 -12.1°
Sets 19:49:21 0° 340° (NNW) 3,245 8.4 -12.2°
